| time (UTC) | temp C | wind direction | speed KPH | gust KPH | rain 1hr cm | rain 24hr cm | rain mn cm | humidity % | barometer mb |
| 20260504081503 | 6 | 205 | 3.2 | 8.0 | 0.00 | 0.00 | 0.00 | 64 | 1009.2 |
| 20260504044543 | 8 | 209 | 1.6 | 8.0 | 0.00 | 0.00 | 0.00 | 66 | 1009.4 |
| 20260504043051 | 8 | 209 | 4.8 | 8.0 | 0.00 | 0.00 | 0.00 | 66 | 1009.4 |
| 20260504041536 | 8 | 209 | 4.8 | 8.0 | 0.00 | 0.00 | 0.00 | 65 | 1009.3 |
| 20260504040031 | 8 | 211 | 6.4 | 9.7 | 0.00 | 0.00 | 0.00 | 62 | 1009.4 |
| 20260504034537 | 9 | 185 | 4.8 | 11.3 | 0.00 | 0.00 | 0.00 | 61 | 1009.3 |
| 20260504033030 | 9 | 195 | 3.2 | 8.0 | 0.00 | 0.00 | 0.00 | 60 | 1009.5 |
| 20260504031529 | 10 | 196 | 3.2 | 11.3 | 0.00 | 0.00 | 0.00 | 58 | 1009.4 |
| 20260504030035 | 10 | 160 | 3.2 | 12.9 | 0.00 | 0.00 | 0.00 | 56 | 1009.4 |
| 20260504024528 | 10 | 192 | 6.4 | 9.7 | 0.00 | 0.00 | 0.00 | 55 | 1009.5 |
| 20260504023030 | 11 | 271 | 3.2 | 6.4 | 0.00 | 0.00 | 0.00 | 54 | 1009.7 |
| 20260504021530 | 11 | 271 | 1.6 | 6.4 | 0.00 | 0.00 | 0.00 | 52 | 1009.7 |
| 20260504020034 | 11 | 271 | 0.0 | 6.4 | 0.00 | 0.00 | 0.00 | 50 | 1009.6 |
| 20260504014526 | 11 | 272 | 1.6 | 3.2 | 0.00 | 0.00 | 0.00 | 52 | 1009.5 |
| 20260504013033 | 11 | 272 | 1.6 | 3.2 | 0.00 | 0.00 | 0.00 | 51 | 1009.4 |
| 20260504011525 | 12 | 272 | 0.0 | 3.2 | 0.00 | 0.00 | 0.00 | 46 | 1009.3 |
| 20260504010024 | 12 | 272 | 3.2 | 4.8 | 0.00 | 0.00 | 0.00 | 44 | 1009.2 |
| 20260504004537 | 13 | 287 | 3.2 | 12.9 | 0.00 | 0.00 | 0.00 | 40 | 1009.0 |
| 20260504003023 | 13 | 257 | 0.0 | 19.3 | 0.00 | 0.00 | 0.00 | 41 | 1009.0 |
| 20260504001531 | 13 | 257 | 1.6 | 4.8 | 0.00 | 0.00 | 0.00 | 40 | 1008.8 |
| 20260504000022 | 13 | 257 | 3.2 | 11.3 | 0.00 | 0.00 | 0.00 | 39 | 1008.6 |
| 20260503234526 | 13 | 272 | 6.4 | 11.3 | 0.00 | 0.00 | 0.00 | 38 | 1008.5 |
| 20260503233021 | 13 | 230 | 6.4 | 14.5 | 0.00 | 0.00 | 0.00 | 38 | 1008.4 |
| 20260503231522 | 13 | 263 | 6.4 | 14.5 | 0.00 | 0.00 | 0.00 | 38 | 1008.4 |
| 20260503230025 | 13 | 273 | 3.2 | 16.1 | 0.00 | 0.00 | 0.00 | 38 | 1008.4 |
| 20260503224518 | 13 | 230 | 4.8 | 14.5 | 0.00 | 0.00 | 0.00 | 38 | 1008.5 |
| 20260503223019 | 13 | 227 | 3.2 | 8.0 | 0.00 | 0.00 | 0.00 | 38 | 1008.5 |
| 20260503221517 | 13 | 228 | 4.8 | 14.5 | 0.00 | 0.00 | 0.00 | 38 | 1008.5 |
| 20260503220027 | 13 | 232 | 6.4 | 12.9 | 0.00 | 0.00 | 0.00 | 38 | 1008.8 |
| 20260503214528 | 13 | 280 | 6.4 | 16.1 | 0.00 | 0.00 | 0.00 | 39 | 1008.8 |
| 20260503213028 | 13 | 344 | 4.8 | 14.5 | 0.00 | 0.00 | 0.00 | 39 | 1008.8 |
| 20260503211515 | 13 | 268 | 12.9 | 20.9 | 0.00 | 0.00 | 0.00 | 39 | 1008.8 |
| 20260503210016 | 13 | 282 | 9.7 | 24.1 | 0.00 | 0.00 | 0.00 | 40 | 1009.0 |
| 20260503204522 | 13 | 307 | 14.5 | 25.7 | 0.00 | 0.00 | 0.00 | 40 | 1009.1 |
| 20260503203013 | 13 | 291 | 12.9 | 29.0 | 0.00 | 0.00 | 0.00 | 37 | 1009.0 |
| 20260503201510 | 13 | 248 | 17.7 | 27.4 | 0.00 | 0.00 | 0.00 | 35 | 1009.0 |
| 20260503200009 | 14 | 315 | 6.4 | 30.6 | 0.00 | 0.00 | 0.00 | 33 | 1008.9 |
| 20260503194508 | 14 | 258 | 12.9 | 25.7 | 0.00 | 0.00 | 0.00 | 33 | 1008.9 |
| 20260503193008 | 13 | 286 | 11.3 | 29.0 | 0.00 | 0.00 | 0.00 | 32 | 1009.3 |
| 20260503191506 | 15 | 281 | 16.1 | 30.6 | 0.00 | 0.00 | 0.00 | 31 | 1009.4 |
| 20260503190014 | 14 | 321 | 11.3 | 32.2 | 0.00 | 0.00 | 0.00 | 31 | 1009.5 |
| 20260503184507 | 14 | 317 | 12.9 | 25.7 | 0.00 | 0.00 | 0.00 | 31 | 1009.5 |
| 20260503183001 | 15 | 340 | 6.4 | 20.9 | 0.00 | 0.00 | 0.00 | 30 | 1009.8 |
| 20260503181608 | 14 | 310 | 14.5 | 32.2 | 0.00 | 0.00 | 0.00 | 31 | 1010.0 |
| 20260503180056 | 13 | 269 | 16.1 | 29.0 | 0.00 | 0.00 | 0.00 | 33 | 1010.2 |
| 20260503174603 | 13 | 256 | 11.3 | 22.5 | 0.00 | 0.00 | 0.00 | 33 | 1010.4 |
| 20260503173053 | 13 | 240 | 9.7 | 20.9 | 0.00 | 0.00 | 0.00 | 33 | 1010.7 |
| 20260503171550 | 13 | 5 | 9.7 | 30.6 | 0.00 | 0.00 | 0.00 | 32 | 1010.8 |